Location: Aigremont
(47.7188°N, 3.8925°E)
Time: 18:59:34
(UTC+00:00)

Cosmos 1943 - Pass Details

Date: 18 February 2020
Orbit: 832 x 852 km, 71.0° (Epoch: 05 April)

Event Time Altitude Azimuth Distance (km) Brightness Sun altitude
Rises 04:44:18 0° 187° (S) 3,362 6.2 -21.2°
Reaches altitude 10° 04:46:47 10° 182° (S) 2,434 5.5 -20.7°
Maximum altitude 04:52:07 48° 109° (ESE) 1,087 4.1 -19.8°
Drops below altitude 10° 04:57:29 10° 37° (NE) 2,459 6.1 -18.9°
Sets 05:00:01 0° 32° (NNE) 3,401 6.8 -18.5°
